[[{"header":{"parameterUnit":"m.s-1","parameterCategory":1,"la1":30.2991,"la2":30.254,"lo1":-89.0895,"lo2":-89.0444,"dy":0.0017,"dx":0.0017,"nx":28,"ny":28,"refTime":"2025-04-24T21:00:00:Z","depth":0,"parameterNumber":2,"parameterNumberName":"U-component_of_WINDS"},"data":[0,0,0,0,0,0,0,0,0,0,0,0,0,0,0,0,0,0,0,0,0,0,0,0,0,0,0,0,0,0,0,0,0,0,0,0,0,0,0,0,0,0,0,0,0,0,0,0,0,0,0,0,0,0,0,0,0,0,-3.9852,-3.9852,0,-3.9868,-3.9868,-3.9868,-3.9823,-3.9822,-3.982,-3.9819,-3.9835,-3.9836,-3.9838,0,0,0,0,0,0,0,0,0,0,0,0,0,-3.9783,-3.9785,-3.9852,-3.9852,-3.9852,-3.9868,-3.9868,-3.9868,-3.9823,-3.9822,-3.982,-3.9818,-3.9834,-3.9836,-3.9838,0,0,0,0,0,0,0,0,0,0,0,0,0,-3.9808,-3.9785,-3.9852,-3.9832,-3.983,-3.9868,-3.9868,-3.9868,-3.9824,-3.9822,-3.9819,-3.9817,-3.9833,-3.9836,-3.9838,-3.9896,0,0,-3.9846,-3.9847,0,0,0,0,0,0,0,0,-3.9806,-3.981,-3.9834,-3.9833,-3.9831,-3.9841,-3.985,-3.9878,-3.9824,-3.9826,-3.9819,-3.9816,-3.9838,-3.984,-3.9848,-3.9897,-3.9897,-3.9846,-3.9848,-3.9849,-3.985,0,0,0,0,0,0,0,-3.9805,-3.9809,-3.9858,-3.9835,-3.9833,-3.9822,-3.9823,-3.9855,-3.9844,-3.9826,-3.9822,-3.9825,-3.9837,-3.9846,-3.9848,-3.9898,-3.9846,-3.9849,-3.985,-3.9851,-3.9996,-3.9998,0,0,0,0,0,0,-3.9806,-3.9808,-3.9858,-3.9859,-3.9813,-3.9825,-3.9826,-3.984,-3.9843,-3.9842,-3.9827,-3.9823,-3.9842,-3.9845,-3.9848,-3.9916,-3.9849,-3.9852,-3.9853,-3.9994,-3.9996,-3.9999,0,0,0,0,0,0,-3.9804,-3.981,-3.9857,-3.9833,-3.9838,-3.9829,-3.9844,-3.9842,-3.985,-3.9844,-3.9842,-3.9837,-3.9841,-3.9845,-3.9885,-3.9916,-3.9853,-3.9855,-3.9991,-3.9995,-3.9998,-4.0052,0,0,0,0,0,0,-3.9802,-3.981,-3.9831,-3.9833,-3.9839,-3.9893,-3.9846,-3.9843,-3.9855,-3.985,-3.9853,-3.9852,-3.9839,-3.9881,-3.9887,-3.9918,-3.9857,-3.9988,-3.9993,-3.9997,-4.0047,-4.0057,-4.0065,0,0,0,0,0,-3.98,-3.9846,-3.9833,-3.9839,-3.9865,-3.9895,-3.9898,-3.9883,-3.9857,-3.9879,-3.9876,-3.9852,-3.9912,-3.9886,-3.9892,-3.9924,-3.9986,-3.9991,-3.9996,-4.0043,-4.0055,-4.0065,0,0,0,0,0,0,-3.9846,-3.9845,-3.9831,-3.9878,-3.9887,-3.9887,-3.9913,-3.9895,-3.9911,-3.9905,-3.9886,-3.9887,-3.9931,-3.9932,-3.9903,-3.9981,-3.9945,-3.9952,-3.9978,-3.9989,-3.9998,-3.9996,-3.9859,0,0,0,0,0,-3.9862,-3.9886,-3.9884,-3.9926,-3.9931,-3.9922,-3.9934,-3.9922,-3.993,-3.9933,-3.9932,-3.9941,-3.9962,-3.9976,-3.9995,-4.0048,-4.0048,-4.0074,-4.0083,-4.009,-4.0095,-4.0124,-4.0135,-4.0016,-4.0016,-4.0016,0,0,-3.9895,-3.9897,-3.9913,-3.9935,-3.994,-3.9966,-3.9925,-3.9953,-3.9971,-3.9937,-3.9974,-3.9975,-3.9984,-4.0031,-4.0052,-4.0033,-4.0129,-4.0097,-4.0103,-4.0104,-4.013,-4.0142,-4.0152,-4.0019,-4.0019,-4.0018,0,0,-3.9966,-3.9971,-4.0006,-4.0013,-4.0023,-4.0017,-4.0026,-4.0029,-4.0028,-4.0066,-4.0041,-4.0064,-4.01,-4.0107,-4.0116,-4.0195,-4.0173,-4.0202,-4.0246,-4.0275,-4.0284,-4.0292,-4.0319,-4.033,-4.0207,-4.0208,-4.0208,0,-4.0005,-4.0042,-4.0027,-4.0057,-4.0068,-4.004,-4.0076,-4.0084,-4.0099,-4.0107,-4.0087,-4.0133,-4.0137,-4.0185,-4.0205,-4.0213,-4.0222,-4.0199,-4.0284,-4.0292,-4.03,-4.0325,-4.0336,-4.0211,-4.021,-4.021,-4.021,0,-4.0089,-4.0115,-4.0143,-4.0159,-4.0173,-4.0206,-4.0197,-4.0214,-4.0202,-4.0198,-4.0238,-4.0243,-4.0262,-4.0274,-4.0262,-4.0321,-4.0309,-4.0287,-4.025,-4.0314,-4.0338,-4.0348,-4.0215,-4.0214,-4.0213,-4.0213,0,0,-4.0185,-4.0196,-4.0206,-4.0213,-4.0223,-4.0243,-4.0276,-4.0296,-4.0311,-4.0323,-4.035,-4.0383,-4.0363,-4.0373,-4.0363,-4.0388,-4.045,-4.0363,-4.0363,-4.0377,-4.0515,-4.053,-4.0541,-4.0437,-4.0439,-4.0441,-4.0514,0,-4.0255,-4.0311,-4.03,-4.0355,-4.0379,-4.0355,-4.0384,-4.0394,-4.0392,-4.0413,-4.0412,-4.0435,-4.0408,-4.0414,-4.0438,-4.0437,-4.0477,-4.0432,-4.0461,-4.0462,-4.0457,-4.0554,-4.0569,-4.0638,-4.0523,-4.0525,-4.0526,0,-4.0342,-4.0359,-4.0416,-4.0424,-4.0434,-4.046,-4.0478,-4.0499,-4.051,-4.0507,-4.052,-4.0506,-4.0539,-4.0504,-4.055,-4.052,-4.0532,-4.0534,-4.0536,-4.0536,-4.0496,-4.0555,-4.066,-4.0669,-4.0541,-4.0539,-4.0538,0,-4.0405,-4.0443,-4.0482,-4.0489,-4.0499,-4.0518,-4.0524,-4.0533,-4.0546,-4.0563,-4.0572,-4.0593,-4.0603,-4.062,-4.0612,-4.0587,-4.0659,-4.0623,-4.0658,-4.0658,-4.0671,-4.067,-4.0777,-4.0683,-4.0683,-4.0683,-4.0683,0,-4.0482,-4.0518,-4.051,-4.0534,-4.0574,-4.0563,-4.0603,-4.0605,-4.0614,-4.0639,-4.062,-4.0644,-4.0633,-4.0655,-4.065,-4.0688,-4.0694,-4.0693,-4.069,-4.0693,-4.0693,-4.0698,-4.0692,-4.0685,-4.0685,-4.0684,-4.0684,0,-4.0558,-4.0554,-4.0595,-4.0603,-4.0606,-4.0635,-4.0641,-4.0664,-4.0663,-4.0694,-4.0701,-4.0699,-4.0725,-4.072,-4.0749,-4.0745,-4.0793,-4.0786,-4.0789,-4.0786,-4.082,-4.0816,-4.0933,-4.0947,-4.0846,-4.0847,-4.0848,0,-4.0605,-4.0632,-4.0644,-4.0659,-4.0666,-4.0691,-4.0705,-4.0697,-4.0712,-4.0729,-4.075,-4.0775,-4.0794,-4.0837,-4.0838,-4.0861,-4.0852,-4.0892,-4.0855,-4.0858,-4.0851,-4.0848,-4.0851,-4.0898,-4.0899,-4.09,-4.0901,0,-4.069,-4.0688,-4.0709,-4.0731,-4.0749,-4.0765,-4.078,-4.0794,-4.0787,-4.0806,-4.0832,-4.0848,-4.0878,-4.0903,-4.0924,-4.093,-4.0914,-4.0913,-4.0922,-4.0923,-4.0923,-4.0922,-4.0806,-4.091,-4.0909,-4.0908,-4.0908,-4.0907,-4.0752,-4.0775,-4.0787,-4.0812,-4.0823,-4.0838,-4.086,-4.0863,-4.0885,-4.0909,-4.0904,-4.0934,-4.0947,-4.0975,-4.0983,-4.1007,-4.0993,-4.1006,-4.1008,-4.1011,-4.1014,-4.0922,-4.1012,-4.1011,-4.1011,-4.1011,-4.1011,0,-4.0834,-4.0842,-4.0865,-4.0887,-4.0907,-4.0893,-4.0909,-4.0927,-4.0954,-4.0968,-4.0988,-4.102,-4.1045,-4.105,-4.1074,-4.1092,-4.1086,-4.1098,-4.1095,-4.1097,-4.1027,-4.1016,-4.1103,-4.1103,-4.1103,-4.1103,-4.1103,-4.1103,-4.0879,-4.0918,-4.0918,-4.0962,-4.097,-4.1,-4.101,-4.1024,-4.1035,-4.1072,-4.1093,-4.1096,-4.1107,-4.1132,-4.1155,-4.1156,-4.1164,-4.118,-4.1178,-4.1111,-4.1102,-4.1093,-4.1083,-4.1182,-4.1182,-4.1245,-4.1246,-4.1246]},{"header":{"parameterUnit":"m.s-1","parameterCategory":1,"la1":30.2991,"la2":30.254,"lo1":-89.0895,"lo2":-89.0444,"dy":0.0017,"dx":0.0017,"nx":28,"ny":28,"refTime":"2025-04-24T21:00:00:Z","depth":0,"parameterNumber":3,"parameterNumberName":"V-component_of_WINDS"},"data":[0,0,0,0,0,0,0,0,0,0,0,0,0,0,0,0,0,0,0,0,0,0,0,0,0,0,0,0,0,0,0,0,0,0,0,0,0,0,0,0,0,0,0,0,0,0,0,0,0,0,0,0,0,0,0,0,0,0,1.7563,1.7563,0,1.7609,1.7609,1.761,1.7625,1.7625,1.7625,1.7624,1.7671,1.7673,1.7674,0,0,0,0,0,0,0,0,0,0,0,0,0,1.749,1.7491,1.7563,1.7563,1.7564,1.7609,1.7609,1.761,1.7625,1.7625,1.7625,1.7624,1.7671,1.7672,1.7674,0,0,0,0,0,0,0,0,0,0,0,0,0,1.7527,1.7491,1.7563,1.7577,1.7579,1.7609,1.7609,1.761,1.7625,1.7625,1.7625,1.7624,1.767,1.7672,1.7674,1.7693,0,0,1.7681,1.7682,0,0,0,0,0,0,0,0,1.7525,1.753,1.7574,1.7576,1.7578,1.7611,1.7601,1.7638,1.7625,1.7607,1.7624,1.7624,1.7651,1.7655,1.7664,1.7696,1.7698,1.7681,1.7682,1.7683,1.7684,0,0,0,0,0,0,0,1.7522,1.7528,1.7581,1.7575,1.7577,1.7581,1.7586,1.7608,1.763,1.7609,1.761,1.7615,1.7652,1.7662,1.7665,1.7698,1.7681,1.7683,1.7684,1.7685,1.775,1.7751,0,0,0,0,0,0,1.7517,1.7525,1.7579,1.7582,1.755,1.7583,1.7589,1.7601,1.763,1.7635,1.7616,1.7616,1.7659,1.7663,1.7667,1.7693,1.7683,1.7685,1.7687,1.775,1.775,1.7751,0,0,0,0,0,0,1.7516,1.7522,1.7578,1.7554,1.7562,1.7585,1.7598,1.7602,1.7611,1.7635,1.7639,1.7621,1.7659,1.7664,1.7687,1.7695,1.7686,1.7688,1.7749,1.775,1.775,1.7743,0,0,0,0,0,0,1.7513,1.7521,1.7528,1.7554,1.7563,1.7596,1.7598,1.7603,1.7615,1.7616,1.7642,1.7646,1.7659,1.7684,1.7689,1.7697,1.769,1.7749,1.7749,1.775,1.7743,1.7744,1.7744,0,0,0,0,0,1.7511,1.7524,1.7528,1.7535,1.7572,1.7597,1.7602,1.7616,1.7616,1.7623,1.7639,1.7645,1.7693,1.7686,1.7693,1.7701,1.7748,1.7749,1.775,1.7743,1.7744,1.7744,0,0,0,0,0,0,1.7497,1.7527,1.7533,1.7554,1.7573,1.7599,1.7609,1.7616,1.7635,1.7635,1.7653,1.7659,1.7681,1.7693,1.7685,1.7723,1.7721,1.7723,1.7713,1.7714,1.7715,1.7711,1.7692,0,0,0,0,0,1.7496,1.7514,1.7539,1.7556,1.7565,1.7586,1.7597,1.7607,1.7627,1.7635,1.7652,1.7671,1.7691,1.7703,1.7723,1.7745,1.7752,1.7755,1.7755,1.7756,1.7757,1.7772,1.7774,1.7754,1.7754,1.7754,0,0,1.7495,1.7514,1.7524,1.7554,1.7569,1.7588,1.7592,1.7611,1.7625,1.7637,1.7661,1.7674,1.7697,1.7721,1.7732,1.7732,1.7765,1.7757,1.7757,1.7759,1.7774,1.7775,1.7777,1.7755,1.7755,1.7754,0,0,1.7503,1.7518,1.7535,1.7551,1.7575,1.7589,1.7593,1.7619,1.7629,1.7653,1.7663,1.768,1.7713,1.773,1.7742,1.7759,1.7766,1.7765,1.7768,1.7783,1.7784,1.7786,1.7793,1.7795,1.7767,1.7767,1.7767,0,1.7498,1.7526,1.7542,1.7561,1.7575,1.7589,1.7606,1.7621,1.765,1.7659,1.7659,1.7702,1.7718,1.7747,1.7751,1.7761,1.7767,1.7762,1.7783,1.7784,1.7786,1.7793,1.7796,1.7767,1.7767,1.7767,1.7767,0,1.752,1.754,1.755,1.7579,1.7594,1.7612,1.7632,1.7645,1.7655,1.7669,1.7694,1.7714,1.7739,1.7747,1.7755,1.7777,1.7777,1.7779,1.7778,1.7788,1.7795,1.7797,1.7766,1.7766,1.7766,1.7766,0,0,1.7519,1.7558,1.7562,1.7576,1.7604,1.762,1.764,1.7664,1.7676,1.7696,1.7714,1.7743,1.7746,1.7761,1.7772,1.7784,1.7798,1.7786,1.7787,1.7788,1.7826,1.7824,1.7826,1.7803,1.7804,1.7804,1.7824,0,1.7531,1.7566,1.7582,1.7611,1.763,1.7644,1.7662,1.7682,1.7696,1.7715,1.7731,1.7752,1.7754,1.7763,1.7777,1.7794,1.7806,1.7793,1.7821,1.7822,1.7815,1.783,1.7827,1.7845,1.7827,1.7827,1.7828,0,1.7549,1.757,1.76,1.7629,1.7638,1.7653,1.7678,1.7696,1.7719,1.7729,1.7747,1.7758,1.778,1.7778,1.781,1.7801,1.7813,1.7824,1.7825,1.7828,1.7825,1.7834,1.7851,1.7853,1.7832,1.7832,1.7831,0,1.7546,1.7582,1.7606,1.7617,1.7651,1.7661,1.7676,1.77,1.7714,1.7736,1.7746,1.7771,1.7784,1.7803,1.7821,1.7818,1.7852,1.7851,1.7862,1.7861,1.7868,1.7867,1.7887,1.7875,1.7875,1.7875,1.7875,0,1.7557,1.7576,1.7605,1.7619,1.7641,1.7661,1.7682,1.7697,1.7719,1.7737,1.7751,1.7768,1.7791,1.7811,1.7826,1.7851,1.7857,1.7866,1.787,1.7865,1.7864,1.7873,1.7873,1.7876,1.7876,1.7876,1.7875,0,1.7557,1.7577,1.7604,1.7635,1.7643,1.7658,1.7684,1.77,1.7716,1.7739,1.7746,1.7771,1.7796,1.7816,1.7848,1.7858,1.7885,1.7889,1.7877,1.7879,1.7889,1.7888,1.7916,1.7921,1.7905,1.7906,1.7906,0,1.7563,1.7578,1.7611,1.7624,1.7639,1.7661,1.7676,1.7697,1.7713,1.7742,1.7754,1.7781,1.7803,1.7842,1.7864,1.7889,1.7894,1.7902,1.7898,1.7894,1.7896,1.7895,1.7897,1.7903,1.7903,1.7903,1.7903,0,1.7572,1.7582,1.7604,1.763,1.7649,1.767,1.7692,1.7702,1.7727,1.7744,1.7771,1.7788,1.7822,1.7848,1.7877,1.7892,1.7902,1.7904,1.7908,1.7904,1.7897,1.7902,1.7879,1.7903,1.7903,1.7903,1.7903,1.7903,1.7576,1.7591,1.7617,1.7641,1.766,1.7681,1.7697,1.7716,1.7739,1.7768,1.778,1.7807,1.7833,1.7872,1.7888,1.791,1.7911,1.7917,1.7918,1.7919,1.7919,1.7893,1.7915,1.7916,1.7916,1.7916,1.7916,0,1.7587,1.7605,1.7627,1.7658,1.7678,1.7686,1.7712,1.7728,1.7752,1.7775,1.7797,1.7829,1.7855,1.788,1.7907,1.7921,1.7926,1.7927,1.7927,1.7931,1.7916,1.7911,1.7923,1.7923,1.7923,1.7923,1.7923,1.7923,1.7594,1.762,1.7634,1.767,1.7688,1.7715,1.7729,1.7749,1.7768,1.7803,1.7825,1.7841,1.7866,1.7896,1.7921,1.7928,1.7938,1.7938,1.7946,1.7932,1.7931,1.793,1.7925,1.794,1.794,1.7958,1.7959,1.7959]}]]